Flag for Switzerland Weather past 2 weeks in Biel, Switzerland

Now
63 °F

Mild.


Feels Like: 63 °F
Forecast: 47 / 65 °F
Wind: 6 mph from West

Location: Grenchen

Current Time: Aug 23, 2014 at 2:38:12 PM

Latest Report: Aug 23, 2014 at 1:00 PM


Visibility: N/A

Pressure: 30.02 "Hg

Humidity: 62%

Dew point: 50 °F

Location of BielLocation

Historic Weather in Biel — Graph

°F

Biel temperature yesterday

Maximum temperature yesterday: 72 °F (at 5:00 PM)
Minimum temperature yesterday: 49 °F (at 5:00 AM)
Average temperature yesterday: 60 °F

Past Weeks' High & Low Weather Summary

 TemperatureHumidityPressure
High80 °F (Aug 8, 5:00 PM)100% (Aug 17, 6:00 AM)30.24 "Hg (Aug 17, 6:00 AM)
Low47 °F (Aug 17, 7:00 AM)41% (Aug 21, 3:00 PM)29.69 "Hg (Aug 13, 9:00 AM)
Average62 °F76%29.98 "Hg
* Reported Aug 8 1:00 PM — Aug 23 1:00 PM, Biel, Weather by CustomWeather, © 2014

Note: Actual official high and low records may vary slightly from our data, if they occured in-between our weather recording intervals... More about our weather records

Advertising

Biel weather history for previous 24 hours

 ConditionsComfort  
Time TempWeatherWind HumidityBarometerVisibility
1:00 PM
Aug 23
63 °FMild.6 mph62%30.02 "HgN/A
12:00 PM62 °FMild.6 mph63%30.03 "HgN/A
11:00 AM60 °FCool.1 mph74%30.04 "HgN/A
10:00 AM58 °FCool.2 mph79%30.04 "HgN/A
9:00 AM56 °FCool.2 mph88%30.04 "HgN/A
8:00 AM54 °FCool.1 mph88%30.04 "HgN/A
7:00 AM53 °FCool.2 mph92%30.04 "HgN/A
6:00 AM52 °FCool.1 mph95%30.03 "HgN/A
5:00 AM51 °FCool.1 mph95%30.03 "HgN/A
4:00 AM51 °FCool.No wind93%30.04 "HgN/A
3:00 AM50 °FCool.2 mph93%30.04 "HgN/A
2:00 AM52 °FCool.3 mph93%30.05 "HgN/A
1:00 AM50 °FCool.2 mph92%30.06 "HgN/A
12:00 AM55 °FCool.2 mph84%30.04 "HgN/A
11:00 PM
Aug 22
58 °FCool.2 mph70%30.03 "HgN/A
10:00 PM62 °FCool.3 mph60%30.01 "HgN/A
9:00 PM64 °FMild.8 mph56%29.98 "HgN/A
8:00 PM66 °FMild.7 mph52%29.96 "HgN/A
7:00 PM68 °FMild.12 mph47%29.94 "HgN/A
6:00 PM70 °FMild.10 mph45%29.93 "HgN/A
5:00 PM72 °FMild.7 mph41%29.93 "HgN/A
4:00 PM72 °FMild.13 mph45%29.93 "HgN/A
3:00 PM70 °FMild.9 mph45%29.95 "HgN/A
2:00 PM70 °FMild.5 mph47%29.97 "HgN/A
Weather by CustomWeather, © 2014

See weather overviewHow to use our weather pages